Location: Cahas Mountain Overlook
(37.0833°N, 80.1000°W)
Time: 10:11:02
(UTC-05:00)

S-56A Canister/Altair - Pass Details

Date: 07 December 2023
Orbit: 640 x 2488 km, 38.9° (Epoch: 25 February)

Event Time Altitude Azimuth Distance (km) Brightness Sun altitude
Rises 15:22:51 0° 284° (WNW) 2,935 11.0 15.2°
Reaches altitude 10° 15:25:01 10° 282° (WNW) 2,058 10.3 14.9°
Maximum altitude 15:29:34 68° 199° (SSW) 786 8.2 14.3°
Drops below altitude 10° 15:35:22 10° 117° (ESE) 2,609 10.1 13.4°
Sets 15:38:26 0° 115° (ESE) 3,804 10.9 13.0°
